This is the latest recevied weather packets stored in our database for station/object KI4HRG. If no packets are shown the sender has not sent any weather packets the latest 10 day(s).
| Time | Temp. | Humidity | Pressure | Rain* | Wind** | Luminosity | Snow |
|---|---|---|---|---|---|---|---|
| 1777550090 | 15° C | 99% | 1012.6 hPa | 0 mm | - | 8 W/m² | - |
| 1777549787 | 15° C | 99% | 1012.5 hPa | 0 mm | - | 9 W/m² | - |
| 1777549483 | 15° C | 99% | 1012.3 hPa | 0 mm | - | 10 W/m² | - |
| 1777549179 | 15° C | 99% | 1012.2 hPa | 0 mm | - | 10 W/m² | - |
| 1777548876 | 15° C | 99% | 1012 hPa | 0 mm | - | 14 W/m² | - |
| 1777548573 | 15° C | 99% | 1011.8 hPa | 0 mm | - | 12 W/m² | - |
| 1777548269 | 15° C | 99% | 1011.9 hPa | 0 mm | - | 6 W/m² | - |
| 1777547966 | 15° C | 99% | 1012.4 hPa | 0 mm | - | 3 W/m² | - |
| 1777547662 | 15° C | 99% | 1012.2 hPa | 0 mm | - | 0 W/m² | - |
| 1777547358 | 15° C | 99% | 1012.4 hPa | 0 mm | - | 0 W/m² | - |
| 1777547057 | 15° C | 99% | 1012.2 hPa | 0 mm | - | 0 W/m² | - |
| 1777546754 | 15° C | 99% | 1011.8 hPa | 0 mm | - | 0 W/m² | - |
| 1777546450 | 15° C | 98% | 1011.8 hPa | 0 mm | - | 0 W/m² | - |
| 1777546147 | 15.56° C | 98% | 1011.8 hPa | 0 mm | - | 0 W/m² | - |
| 1777545843 | 15° C | 98% | 1011.6 hPa | 0 mm | - | 0 W/m² | - |
| 1777545541 | 15° C | 98% | 1011.6 hPa | 0 mm | - | 0 W/m² | - |
| 1777545236 | 15° C | 99% | 1012 hPa | 0 mm | - | 0 W/m² | - |
| 1777544935 | 15° C | 99% | 1012 hPa | 0 mm | - | 0 W/m² | - |
| 1777544630 | 15.56° C | 99% | 1012 hPa | 0 mm | - | 0 W/m² | - |
| 1777544327 | 15.56° C | 99% | 1011.9 hPa | 0 mm | - | 0 W/m² | - |
| 1777544024 | 15.56° C | 99% | 1011.9 hPa | 0 mm | - | 0 W/m² | - |
| 1777543721 | 15.56° C | 99% | 1011.7 hPa | 0 mm | - | 0 W/m² | - |
| 1777543417 | 15.56° C | 98% | 1011.7 hPa | 0 mm | - | 0 W/m² | - |
| 1777543112 | 15.56° C | 98% | 1011.8 hPa | 0 mm | - | 0 W/m² | - |
| 1777542809 | 15.56° C | 98% | 1011.6 hPa | 0 mm | - | 0 W/m² | - |
* Rain latest hour (hover to see other rain measurements)
** Current wind speed in m/s (hover to see current wind gust speed)